Time,TemperatureF,DewpointF,PressureIn,WindDirection,WindDirectionDegrees,WindSpeedMPH,WindSpeedGustMPH,Humidity,HourlyPrecipIn,Conditions,Clouds,dailyrainin,SoftwareType,DateUTC
2013-01-31 00:00:00,71.0,65.2,29.89,SSE,165,5.8,5.8,82,0.00,CLR,OVC,0.00,WeatherDisplay:10.37,2013-01-31 05:00:00,
2013-01-31 00:05:00,70.9,65.1,29.90,South,186,6.9,6.9,82,0.00,SCT,OVC,0.00,WeatherDisplay:10.37,2013-01-31 05:05:00,
2013-01-31 00:10:00,70.8,65.0,29.89,SSE,161,5.0,5.0,82,0.00,SCT,OVC,0.00,WeatherDisplay:10.37,2013-01-31 05:10:00,
2013-01-31 00:15:00,70.8,65.0,29.89,SSW,206,6.0,6.0,82,0.00,SCT,OVC,0.00,WeatherDisplay:10.37,2013-01-31 05:15:00,
2013-01-31 00:20:00,70.8,65.0,29.89,SSW,192,4.6,4.6,82,0.00,SCT,OVC,0.00,WeatherDisplay:10.37,2013-01-31 05:20:00,
2013-01-31 00:25:00,70.7,65.3,29.89,South,184,5.0,5.0,83,0.00,SCT,OVC,0.00,WeatherDisplay:10.37,2013-01-31 05:25:00,
2013-01-31 00:30:00,70.7,65.3,29.89,South,186,7.0,7.0,83,0.00,SCT,OVC,0.00,WeatherDisplay:10.37,2013-01-31 05:30:00,
2013-01-31 00:35:00,70.7,65.3,29.88,SSW,196,7.0,7.0,83,0.00,SCT,OVC,0.00,WeatherDisplay:10.37,2013-01-31 05:35:00,
2013-01-31 00:40:00,70.7,65.3,29.88,South,182,4.0,4.0,83,0.00,SCT,OVC,0.00,WeatherDisplay:10.37,2013-01-31 05:40:00,
2013-01-31 00:45:00,70.7,65.3,29.89,SSE,161,5.8,5.8,83,0.00,SCT,OVC,0.00,WeatherDisplay:10.37,2013-01-31 05:45:00,
2013-01-31 00:50:00,70.7,65.3,29.89,SSW,198,4.6,4.6,83,0.00,SCT,OVC,0.00,WeatherDisplay:10.37,2013-01-31 05:50:00,
2013-01-31 00:55:00,70.8,65.4,29.89,SSE,162,5.8,5.8,83,0.00,SCT,OVC,0.00,WeatherDisplay:10.37,2013-01-31 05:55:00,
2013-01-31 01:00:00,70.9,65.5,29.90,SW,222,4.6,4.6,83,0.00,SCT,OVC,0.00,WeatherDisplay:10.37,2013-01-31 06:00:00,
2013-01-31 01:05:00,70.9,65.5,29.92,SSW,213,2.3,2.3,83,0.00,-RA,OVC,0.00,WeatherDisplay:10.37,2013-01-31 06:05:00,
2013-01-31 01:10:00,70.8,65.4,29.92,NW,323,3.4,3.4,83,0.00,-RA,OVC,0.00,WeatherDisplay:10.37,2013-01-31 06:10:00,
2013-01-31 01:15:00,69.6,63.9,29.94,South,183,5.8,5.8,82,0.00,-RA,OVC,0.00,WeatherDisplay:10.37,2013-01-31 06:15:00,
2013-01-31 01:20:00,67.5,62.2,29.94,West,267,6.9,6.9,83,0.00,-RA,OVC,0.00,WeatherDisplay:10.37,2013-01-31 06:20:00,
2013-01-31 01:25:00,65.8,61.2,29.95,WSW,250,3.4,3.4,85,0.00,-RA,OVC,0.00,WeatherDisplay:10.37,2013-01-31 06:25:00,
2013-01-31 01:30:00,64.4,59.8,29.96,WNW,291,6.9,6.9,85,0.00,-RA,OVC,0.00,WeatherDisplay:10.37,2013-01-31 06:30:00,
2013-01-31 01:35:00,62.8,58.2,29.96,NW,314,3.4,3.4,85,0.00,-RA,OVC,0.00,WeatherDisplay:10.37,2013-01-31 06:35:00,
2013-01-31 01:40:00,61.8,57.6,29.96,West,277,4.6,4.6,86,0.00,-RA,OVC,0.00,WeatherDisplay:10.37,2013-01-31 06:40:00,
2013-01-31 01:45:00,61.1,57.2,29.95,WSW,242,4.0,4.0,87,0.00,-RA,OVC,0.00,WeatherDisplay:10.37,2013-01-31 06:45:00,
2013-01-31 01:50:00,60.5,56.6,29.96,WNW,299,8.1,8.1,87,0.00,-RA,OVC,0.00,WeatherDisplay:10.37,2013-01-31 06:50:00,
2013-01-31 01:55:00,59.9,56.0,29.96,SW,222,6.0,6.0,87,0.00,-RA,OVC,0.00,WeatherDisplay:10.37,2013-01-31 06:55:00,
2013-01-31 02:00:00,59.3,55.7,29.96,WSW,239,4.6,4.6,88,0.00,-RA,OVC,0.00,WeatherDisplay:10.37,2013-01-31 07:00:00,
2013-01-31 02:05:00,59.0,55.4,29.96,NNW,346,5.8,5.8,88,0.00,-RA,OVC,0.00,WeatherDisplay:10.37,2013-01-31 07:05:00,
2013-01-31 02:10:00,58.7,55.2,29.96,NW,308,3.4,3.4,88,0.00,-RA,OVC,0.00,WeatherDisplay:10.37,2013-01-31 07:10:00,
2013-01-31 02:14:00,58.3,54.8,29.96,WSW,257,8.1,8.1,88,0.00,-RA,OVC,0.00,WeatherDisplay:10.37,2013-01-31 07:14:00,
2013-01-31 02:15:00,58.3,54.8,29.96,WSW,257,8.1,8.1,88,0.00,-RA,OVC,0.00,WeatherDisplay:10.37,2013-01-31 07:15:00,
2013-01-31 02:20:00,58.3,54.8,29.96,WSW,257,8.1,8.1,88,0.00,-RA,OVC,0.00,WeatherDisplay:10.37,2013-01-31 07:20:00,
2013-01-31 02:29:00,57.4,53.6,29.97,NW,313,7.0,7.0,87,0.00,-RA,OVC,0.00,WeatherDisplay:10.37,2013-01-31 07:29:00,
2013-01-31 02:34:00,57.2,53.4,29.98,NNW,336,3.4,3.4,87,0.00,-RA,OVC,0.00,WeatherDisplay:10.37,2013-01-31 07:34:00,
2013-01-31 02:39:00,57.0,53.5,29.98,WSW,239,4.0,4.0,88,0.00,-RA,OVC,0.00,WeatherDisplay:10.37,2013-01-31 07:39:00,
2013-01-31 02:44:00,56.7,53.2,29.98,NNW,340,4.0,4.0,88,0.00,-RA,OVC,0.00,WeatherDisplay:10.37,2013-01-31 07:44:00,
2013-01-31 02:49:00,55.9,52.4,29.99,WSW,246,6.9,6.9,88,0.00,-RA,OVC,0.00,WeatherDisplay:10.37,2013-01-31 07:49:00,
2013-01-31 02:54:00,55.4,51.9,29.99,NW,305,6.9,6.9,88,0.00,-RA,OVC,0.00,WeatherDisplay:10.37,2013-01-31 07:54:00,
2013-01-31 02:59:00,55.0,51.5,29.99,NNW,336,3.4,3.4,88,0.00,-RA,OVC,0.00,WeatherDisplay:10.37,2013-01-31 07:59:00,
2013-01-31 03:04:00,54.7,51.2,29.99,WNW,302,2.3,2.3,88,0.00,-RA,OVC,0.01,WeatherDisplay:10.37,2013-01-31 08:04:00,
2013-01-31 03:09:00,54.4,50.9,29.99,NNW,329,1.1,0.0,88,0.01,-RA,OVC,0.01,WeatherDisplay:10.37,2013-01-31 08:09:00,
2013-01-31 03:14:00,54.3,50.8,29.99,WSW,239,1.1,1.1,88,0.01,-RA,OVC,0.01,WeatherDisplay:10.37,2013-01-31 08:14:00,
2013-01-31 03:19:00,54.1,50.6,29.99,SW,218,1.1,1.1,88,0.01,-RA,OVC,0.01,WeatherDisplay:10.37,2013-01-31 08:19:00,
2013-01-31 03:24:00,54.0,50.5,29.99,North,1,0.0,0.0,88,0.01,-RA,OVC,0.01,WeatherDisplay:10.37,2013-01-31 08:24:00,
2013-01-31 03:29:00,53.9,50.7,29.99,North,355,0.0,0.0,89,0.01,-RA,OVC,0.01,WeatherDisplay:10.37,2013-01-31 08:29:00,
2013-01-31 03:34:00,54.0,50.8,30.00,North,355,0.0,0.0,89,0.01,-RA,OVC,0.01,WeatherDisplay:10.37,2013-01-31 08:34:00,
2013-01-31 03:39:00,54.0,50.8,30.00,North,355,0.0,0.0,89,0.01,-RA,OVC,0.01,WeatherDisplay:10.37,2013-01-31 08:39:00,
2013-01-31 03:44:00,54.0,50.8,30.00,North,355,0.0,0.0,89,0.02,-RA,OVC,0.02,WeatherDisplay:10.37,2013-01-31 08:44:00,
2013-01-31 03:49:00,54.1,50.9,30.00,North,355,0.0,0.0,89,0.02,-RA,OVC,0.02,WeatherDisplay:10.37,2013-01-31 08:49:00,
2013-01-31 03:54:00,54.2,51.0,29.99,North,355,0.0,0.0,89,0.02,-RA,OVC,0.02,WeatherDisplay:10.37,2013-01-31 08:54:00,
2013-01-31 03:59:00,54.3,51.1,30.00,North,355,0.0,0.0,89,0.02,-RA,OVC,0.02,WeatherDisplay:10.37,2013-01-31 08:59:00,
2013-01-31 04:04:00,54.3,51.1,30.00,North,355,0.0,0.0,89,0.02,OVC,OVC,0.02,WeatherDisplay:10.37,2013-01-31 09:04:00,
2013-01-31 04:09:00,54.4,51.2,30.00,North,355,0.0,0.0,89,0.01,OVC,OVC,0.02,WeatherDisplay:10.37,2013-01-31 09:09:00,
2013-01-31 04:14:00,54.5,51.3,30.00,North,355,0.0,0.0,89,0.01,OVC,OVC,0.02,WeatherDisplay:10.37,2013-01-31 09:14:00,
2013-01-31 04:19:00,54.5,51.3,29.99,North,355,1.1,0.0,89,0.01,OVC,OVC,0.02,WeatherDisplay:10.37,2013-01-31 09:19:00,
2013-01-31 04:24:00,54.6,51.4,29.99,North,355,0.0,0.0,89,0.01,OVC,OVC,0.02,WeatherDisplay:10.37,2013-01-31 09:24:00,
2013-01-31 04:29:00,54.6,51.4,30.00,North,355,0.0,0.0,89,0.01,OVC,OVC,0.02,WeatherDisplay:10.37,2013-01-31 09:29:00,
2013-01-31 04:47:00,54.9,51.7,30.00,NW,305,0.0,0.0,89,0.00,OVC,OVC,0.02,WeatherDisplay:10.37,2013-01-31 09:47:00,
2013-01-31 04:52:00,54.9,51.7,29.99,WNW,295,0.0,0.0,89,0.00,OVC,OVC,0.02,WeatherDisplay:10.37,2013-01-31 09:52:00,
2013-01-31 04:57:00,54.9,51.7,30.00,WNW,294,0.0,0.0,89,0.00,OVC,OVC,0.02,WeatherDisplay:10.37,2013-01-31 09:57:00,
2013-01-31 05:02:00,54.9,51.7,30.00,WNW,294,0.0,0.0,89,0.00,OVC,OVC,0.02,WeatherDisplay:10.37,2013-01-31 10:02:00,
2013-01-31 05:07:00,54.8,51.6,30.00,WNW,294,0.0,0.0,89,0.00,OVC,OVC,0.02,WeatherDisplay:10.37,2013-01-31 10:07:00,
2013-01-31 05:12:00,54.8,51.6,30.00,WNW,294,0.0,0.0,89,0.00,OVC,OVC,0.02,WeatherDisplay:10.37,2013-01-31 10:12:00,
2013-01-31 05:17:00,54.8,51.6,30.00,WSW,254,3.4,0.0,89,0.00,OVC,OVC,0.02,WeatherDisplay:10.37,2013-01-31 10:17:00,
2013-01-31 05:22:00,54.7,51.5,30.01,SW,230,0.0,0.0,89,0.00,OVC,OVC,0.02,WeatherDisplay:10.37,2013-01-31 10:22:00,
2013-01-31 05:27:00,54.8,51.6,30.01,NNW,334,0.0,0.6,89,0.00,OVC,OVC,0.02,WeatherDisplay:10.37,2013-01-31 10:27:00,
2013-01-31 05:32:00,54.8,51.6,30.01,NNW,347,0.0,0.2,89,0.00,OVC,OVC,0.02,WeatherDisplay:10.37,2013-01-31 10:32:00,
2013-01-31 05:37:00,54.8,51.6,30.01,NNW,340,1.1,1.1,89,0.00,OVC,OVC,0.02,WeatherDisplay:10.37,2013-01-31 10:37:00,
2013-01-31 05:42:00,54.8,51.3,30.01,NW,326,1.1,1.1,88,0.00,OVC,OVC,0.02,WeatherDisplay:10.37,2013-01-31 10:42:00,
2013-01-31 05:47:00,54.8,51.3,30.02,WSW,253,1.1,1.1,88,0.00,OVC,OVC,0.02,WeatherDisplay:10.37,2013-01-31 10:47:00,
2013-01-31 05:52:00,54.9,51.4,30.02,WSW,246,0.0,0.0,88,0.00,OVC,OVC,0.02,WeatherDisplay:10.37,2013-01-31 10:52:00,
2013-01-31 05:57:00,54.8,51.3,30.02,WSW,246,1.1,0.0,88,0.00,OVC,OVC,0.02,WeatherDisplay:10.37,2013-01-31 10:57:00,
2013-01-31 06:02:00,54.9,51.4,30.02,SE,125,2.3,2.3,88,0.00,OVC,OVC,0.02,WeatherDisplay:10.37,2013-01-31 11:02:00,
2013-01-31 06:07:00,54.9,51.1,30.02,West,281,1.1,1.1,87,0.00,OVC,OVC,0.02,WeatherDisplay:10.37,2013-01-31 11:07:00,
2013-01-31 06:12:00,54.8,51.0,30.03,WSW,239,2.3,2.3,87,0.00,OVC,OVC,0.02,WeatherDisplay:10.37,2013-01-31 11:12:00,
2013-01-31 06:17:00,54.8,50.7,30.03,NW,322,2.3,2.3,86,0.00,OVC,OVC,0.02,WeatherDisplay:10.37,2013-01-31 11:17:00,
2013-01-31 06:22:00,54.8,50.4,30.03,North,351,1.1,1.1,85,0.00,OVC,OVC,0.02,WeatherDisplay:10.37,2013-01-31 11:22:00,
2013-01-31 06:27:00,54.7,50.3,30.03,WNW,294,1.1,1.1,85,0.00,OVC,OVC,0.02,WeatherDisplay:10.37,2013-01-31 11:27:00,
2013-01-31 06:32:00,54.6,50.2,30.03,NW,322,1.1,1.1,85,0.00,OVC,OVC,0.02,WeatherDisplay:10.37,2013-01-31 11:32:00,
2013-01-31 06:37:00,54.5,50.1,30.04,West,267,2.3,2.3,85,0.00,OVC,OVC,0.02,WeatherDisplay:10.37,2013-01-31 11:37:00,
2013-01-31 06:42:00,54.5,50.1,30.04,WSW,250,1.1,1.1,85,0.00,OVC,OVC,0.02,WeatherDisplay:10.37,2013-01-31 11:42:00,
2013-01-31 06:47:00,54.4,50.0,30.05,WNW,289,1.1,1.1,85,0.00,OVC,OVC,0.02,WeatherDisplay:10.37,2013-01-31 11:47:00,
2013-01-31 06:52:00,54.2,49.8,30.06,NW,310,1.1,0.0,85,0.00,OVC,OVC,0.02,WeatherDisplay:10.37,2013-01-31 11:52:00,
2013-01-31 06:57:00,54.0,49.6,30.06,West,274,0.0,0.0,85,0.00,OVC,OVC,0.02,WeatherDisplay:10.37,2013-01-31 11:57:00,
2013-01-31 07:02:00,53.9,49.5,30.07,West,274,0.0,0.0,85,0.00,CLR,OVC,0.02,WeatherDisplay:10.37,2013-01-31 12:02:00,
2013-01-31 07:07:00,53.7,49.6,30.07,NNW,341,1.1,0.0,86,0.00,CLR,OVC,0.02,WeatherDisplay:10.37,2013-01-31 12:07:00,
2013-01-31 07:12:00,53.4,49.3,30.07,North,354,1.1,1.1,86,0.00,CLR,OVC,0.02,WeatherDisplay:10.37,2013-01-31 12:12:00,
2013-01-31 07:17:00,53.3,49.2,30.06,North,354,1.1,1.1,86,0.00,CLR,OVC,0.02,WeatherDisplay:10.37,2013-01-31 12:17:00,
2013-01-31 07:22:00,53.2,49.1,30.08,North,352,0.0,0.0,86,0.00,CLR,OVC,0.02,WeatherDisplay:10.37,2013-01-31 12:22:00,
2013-01-31 07:27:00,53.0,48.9,30.07,NW,322,2.3,2.3,86,0.00,CLR,OVC,0.02,WeatherDisplay:10.37,2013-01-31 12:27:00,
2013-01-31 07:29:00,52.9,48.8,30.08,NNW,329,0.0,0.4,86,0.00,CLR,OVC,0.02,WeatherDisplay:10.37,2013-01-31 12:29:00,
2013-01-31 07:32:00,52.9,48.8,30.08,NNW,329,0.0,0.4,86,0.00,CLR,OVC,0.02,WeatherDisplay:10.37,2013-01-31 12:32:00,
2013-01-31 07:37:00,52.9,48.8,30.08,NNW,329,0.0,0.4,86,0.00,CLR,OVC,0.02,WeatherDisplay:10.37,2013-01-31 12:37:00,
2013-01-31 07:44:00,52.7,48.6,30.08,NW,320,5.0,5.0,86,0.00,CLR,OVC,0.02,WeatherDisplay:10.37,2013-01-31 12:44:00,
2013-01-31 07:49:00,52.8,48.4,30.08,WNW,295,2.0,2.0,85,0.00,CLR,OVC,0.02,WeatherDisplay:10.37,2013-01-31 12:49:00,
2013-01-31 07:54:00,52.8,48.1,30.08,North,355,4.0,4.0,84,0.00,CLR,OVC,0.02,WeatherDisplay:10.37,2013-01-31 12:54:00,
2013-01-31 07:59:00,52.7,47.7,30.09,WSW,239,2.0,2.0,83,0.00,CLR,OVC,0.02,WeatherDisplay:10.37,2013-01-31 12:59:00,
2013-01-31 08:04:00,52.7,46.7,30.09,NNW,334,1.1,1.1,80,0.00,CLR,OVC,0.02,WeatherDisplay:10.37,2013-01-31 13:04:00,
2013-01-31 08:09:00,52.8,46.5,30.09,NW,313,1.1,1.1,79,0.00,CLR,OVC,0.02,WeatherDisplay:10.37,2013-01-31 13:09:00,
2013-01-31 08:14:00,52.8,46.1,30.10,West,265,3.4,3.4,78,0.00,CLR,OVC,0.02,WeatherDisplay:10.37,2013-01-31 13:14:00,
2013-01-31 08:19:00,52.9,45.9,30.10,West,267,3.4,3.4,77,0.00,CLR,OVC,0.02,WeatherDisplay:10.37,2013-01-31 13:19:00,
2013-01-31 08:24:00,53.1,46.4,30.10,NW,317,0.0,0.0,78,0.00,CLR,OVC,0.02,WeatherDisplay:10.37,2013-01-31 13:24:00,
2013-01-31 08:29:00,53.1,46.1,30.10,NW,307,3.0,3.0,77,0.00,CLR,OVC,0.02,WeatherDisplay:10.37,2013-01-31 13:29:00,
2013-01-31 08:34:00,53.2,46.2,30.11,NNE,29,3.4,3.4,77,0.00,CLR,OVC,0.02,WeatherDisplay:10.37,2013-01-31 13:34:00,
2013-01-31 08:39:00,53.3,46.6,30.11,NW,307,3.4,3.4,78,0.00,CLR,OVC,0.02,WeatherDisplay:10.37,2013-01-31 13:39:00,
2013-01-31 08:44:00,53.4,46.4,30.11,NW,313,2.3,2.3,77,0.00,CLR,OVC,0.02,WeatherDisplay:10.37,2013-01-31 13:44:00,
2013-01-31 08:49:00,53.6,46.9,30.11,NW,312,3.4,3.4,78,0.00,CLR,OVC,0.02,WeatherDisplay:10.37,2013-01-31 13:49:00,
2013-01-31 08:54:00,53.6,46.2,30.12,NW,323,3.4,3.4,76,0.00,CLR,OVC,0.02,WeatherDisplay:10.37,2013-01-31 13:54:00,
2013-01-31 08:59:00,53.7,46.3,30.12,WNW,299,2.3,2.3,76,0.00,CLR,OVC,0.02,WeatherDisplay:10.37,2013-01-31 13:59:00,
2013-01-31 09:04:00,53.9,45.4,30.12,WSW,237,6.9,6.9,73,0.00,CLR,OVC,0.02,WeatherDisplay:10.37,2013-01-31 14:04:00,
2013-01-31 09:09:00,53.8,43.1,30.12,North,7,3.4,3.4,67,0.00,CLR,OVC,0.02,WeatherDisplay:10.37,2013-01-31 14:09:00,
2013-01-31 09:14:00,53.7,43.0,30.13,North,353,4.0,4.0,67,0.00,CLR,OVC,0.02,WeatherDisplay:10.37,2013-01-31 14:14:00,
2013-01-31 09:19:00,53.7,43.0,30.13,NNW,329,3.4,3.4,67,0.00,CLR,OVC,0.02,WeatherDisplay:10.37,2013-01-31 14:19:00,
2013-01-31 09:24:00,53.7,42.6,30.13,NNW,347,5.0,5.0,66,0.00,CLR,OVC,0.02,WeatherDisplay:10.37,2013-01-31 14:24:00,
2013-01-31 09:29:00,53.7,42.6,30.13,WNW,299,5.8,5.8,66,0.00,CLR,OVC,0.02,WeatherDisplay:10.37,2013-01-31 14:29:00,
2013-01-31 09:34:00,53.6,43.3,30.13,South,187,3.4,3.4,68,0.00,CLR,OVC,0.02,WeatherDisplay:10.37,2013-01-31 14:34:00,
2013-01-31 09:39:00,53.7,43.4,30.13,WNW,302,3.4,3.4,68,0.00,CLR,OVC,0.02,WeatherDisplay:10.37,2013-01-31 14:39:00,
2013-01-31 09:44:00,53.7,42.2,30.14,WNW,302,5.0,5.0,65,0.00,CLR,OVC,0.02,WeatherDisplay:10.37,2013-01-31 14:44:00,
2013-01-31 09:49:00,53.8,41.5,30.13,NW,320,6.9,6.9,63,0.00,CLR,OVC,0.02,WeatherDisplay:10.37,2013-01-31 14:49:00,
2013-01-31 09:54:00,53.8,41.1,30.14,ENE,66,8.1,8.1,62,0.00,CLR,OVC,0.02,WeatherDisplay:10.37,2013-01-31 14:54:00,
2013-01-31 09:59:00,54.0,41.3,30.14,SW,232,4.6,4.6,62,0.00,CLR,OVC,0.02,WeatherDisplay:10.37,2013-01-31 14:59:00,
2013-01-31 10:04:00,54.1,41.4,30.14,NW,313,3.4,3.4,62,0.00,CLR,OVC,0.02,WeatherDisplay:10.37,2013-01-31 15:04:00,
2013-01-31 10:09:00,54.2,40.6,30.14,NNW,334,3.4,3.4,60,0.00,CLR,OVC,0.02,WeatherDisplay:10.37,2013-01-31 15:09:00,
2013-01-31 10:14:00,54.2,38.8,30.15,NW,316,6.9,6.9,56,0.00,CLR,OVC,0.02,WeatherDisplay:10.37,2013-01-31 15:14:00,
2013-01-31 10:19:00,54.2,38.8,30.15,WSW,239,6.9,6.9,56,0.00,CLR,OVC,0.02,WeatherDisplay:10.37,2013-01-31 15:19:00,
2013-01-31 10:24:00,54.3,38.9,30.15,NW,309,3.4,3.4,56,0.00,CLR,OVC,0.02,WeatherDisplay:10.37,2013-01-31 15:24:00,
2013-01-31 10:29:00,54.4,39.5,30.15,NNW,344,4.6,4.6,57,0.00,CLR,OVC,0.02,WeatherDisplay:10.37,2013-01-31 15:29:00,
2013-01-31 10:34:00,54.4,39.9,30.15,North,351,5.8,5.8,58,0.00,CLR,OVC,0.02,WeatherDisplay:10.37,2013-01-31 15:34:00,
2013-01-31 10:39:00,54.5,39.6,30.16,NW,319,4.6,4.6,57,0.00,CLR,OVC,0.02,WeatherDisplay:10.37,2013-01-31 15:39:00,
2013-01-31 10:44:00,54.5,39.1,30.15,West,279,6.9,6.9,56,0.00,CLR,OVC,0.02,WeatherDisplay:10.37,2013-01-31 15:44:00,
2013-01-31 10:49:00,54.7,38.8,30.15,WNW,299,4.0,4.0,55,0.00,CLR,OVC,0.02,WeatherDisplay:10.37,2013-01-31 15:49:00,
2013-01-31 10:54:00,54.7,38.8,30.15,SW,235,3.4,3.4,55,0.00,CLR,OVC,0.02,WeatherDisplay:10.37,2013-01-31 15:54:00,
2013-01-31 10:59:00,55.1,38.3,30.15,SW,217,2.3,2.3,53,0.00,CLR,OVC,0.02,WeatherDisplay:10.37,2013-01-31 15:59:00,
2013-01-31 11:04:00,55.2,37.4,30.15,SW,216,4.6,4.6,51,0.00,CLR,OVC,0.02,WeatherDisplay:10.37,2013-01-31 16:04:00,
2013-01-31 11:09:00,55.3,37.0,30.15,WNW,285,5.8,5.8,50,0.00,CLR,OVC,0.02,WeatherDisplay:10.37,2013-01-31 16:09:00,
2013-01-31 11:14:00,55.5,36.1,30.16,NNW,333,4.6,4.6,48,0.00,CLR,OVC,0.02,WeatherDisplay:10.37,2013-01-31 16:14:00,
2013-01-31 11:19:00,55.5,36.1,30.15,SSW,211,4.6,4.6,48,0.00,CLR,OVC,0.02,WeatherDisplay:10.37,2013-01-31 16:19:00,
2013-01-31 11:24:00,55.6,36.2,30.16,North,2,4.6,4.6,48,0.00,CLR,OVC,0.02,WeatherDisplay:10.37,2013-01-31 16:24:00,
2013-01-31 11:29:00,55.9,36.5,30.16,NNW,347,4.6,4.6,48,0.00,CLR,OVC,0.02,WeatherDisplay:10.37,2013-01-31 16:29:00,
2013-01-31 11:34:00,56.0,34.9,30.16,North,357,6.9,6.9,45,0.00,CLR,OVC,0.02,WeatherDisplay:10.37,2013-01-31 16:34:00,
2013-01-31 11:39:00,55.9,34.3,30.16,NNW,332,8.1,8.1,44,0.00,CLR,OVC,0.02,WeatherDisplay:10.37,2013-01-31 16:39:00,
2013-01-31 11:44:00,56.0,35.5,30.15,WSW,237,2.3,2.3,46,0.00,CLR,OVC,0.02,WeatherDisplay:10.37,2013-01-31 16:44:00,
2013-01-31 11:49:00,56.3,36.8,30.15,WSW,253,3.4,3.4,48,0.00,CLR,OVC,0.02,WeatherDisplay:10.37,2013-01-31 16:49:00,
2013-01-31 11:54:00,56.4,36.4,30.15,SW,234,2.3,2.3,47,0.00,CLR,OVC,0.02,WeatherDisplay:10.37,2013-01-31 16:54:00,
2013-01-31 11:59:00,56.5,36.5,30.15,WSW,251,4.0,4.0,47,0.00,CLR,OVC,0.02,WeatherDisplay:10.37,2013-01-31 16:59:00,
2013-01-31 12:04:00,56.6,37.1,30.15,NNW,331,2.3,2.3,48,0.00,CLR,OVC,0.02,WeatherDisplay:10.37,2013-01-31 17:04:00,
2013-01-31 12:09:00,56.6,38.7,30.14,North,353,1.1,1.1,51,0.00,CLR,OVC,0.02,WeatherDisplay:10.37,2013-01-31 17:09:00,
2013-01-31 12:14:00,57.0,39.0,30.14,NW,317,5.8,5.8,51,0.00,CLR,OVC,0.02,WeatherDisplay:10.37,2013-01-31 17:14:00,
2013-01-31 12:19:00,57.1,38.1,30.14,WNW,286,4.6,4.6,49,0.00,CLR,OVC,0.02,WeatherDisplay:10.37,2013-01-31 17:19:00,
2013-01-31 12:24:00,57.0,38.5,30.14,WNW,289,3.4,3.4,50,0.00,CLR,OVC,0.02,WeatherDisplay:10.37,2013-01-31 17:24:00,
2013-01-31 12:29:00,57.3,38.3,30.14,NW,323,3.4,3.4,49,0.00,CLR,OVC,0.02,WeatherDisplay:10.37,2013-01-31 17:29:00,
2013-01-31 12:34:00,57.5,37.4,30.14,WNW,288,3.4,3.4,47,0.00,CLR,OVC,0.02,WeatherDisplay:10.37,2013-01-31 17:34:00,
2013-01-31 12:39:00,57.5,37.9,30.14,WNW,286,2.3,2.3,48,0.00,CLR,OVC,0.02,WeatherDisplay:10.37,2013-01-31 17:39:00,
2013-01-31 12:44:00,57.6,38.0,30.14,NW,320,3.0,3.0,48,0.00,CLR,OVC,0.02,WeatherDisplay:10.37,2013-01-31 17:44:00,
2013-01-31 12:49:00,57.6,37.0,30.14,NW,319,2.3,2.3,46,0.00,CLR,OVC,0.02,WeatherDisplay:10.37,2013-01-31 17:49:00,
2013-01-31 12:54:00,57.6,37.0,30.14,NW,319,2.3,2.3,46,0.00,CLR,OVC,0.02,WeatherDisplay:10.37,2013-01-31 17:54:00,
2013-01-31 12:59:00,58.0,37.3,30.14,NNW,346,5.0,5.0,46,0.00,CLR,OVC,0.02,WeatherDisplay:10.37,2013-01-31 17:59:00,
2013-01-31 13:04:00,58.2,36.9,30.14,WNW,296,3.4,3.4,45,0.00,CLR,OVC,0.02,WeatherDisplay:10.37,2013-01-31 18:04:00,
2013-01-31 13:09:00,58.5,36.6,30.14,West,267,3.4,3.4,44,0.00,CLR,OVC,0.02,WeatherDisplay:10.37,2013-01-31 18:09:00,
2013-01-31 13:14:00,58.6,37.3,30.14,NE,50,3.0,3.0,45,0.00,CLR,OVC,0.02,WeatherDisplay:10.37,2013-01-31 18:14:00,
2013-01-31 13:19:00,58.4,37.7,30.13,ENE,60,3.4,3.4,46,0.00,CLR,OVC,0.02,WeatherDisplay:10.37,2013-01-31 18:19:00,
2013-01-31 13:24:00,58.7,37.4,30.13,SW,233,3.4,3.4,45,0.00,CLR,OVC,0.02,WeatherDisplay:10.37,2013-01-31 18:24:00,
2013-01-31 13:29:00,58.7,36.8,30.13,SSW,192,3.4,3.4,44,0.00,CLR,OVC,0.02,WeatherDisplay:10.37,2013-01-31 18:29:00,
2013-01-31 13:34:00,59.0,36.5,30.13,WNW,294,3.4,3.4,43,0.00,CLR,OVC,0.02,WeatherDisplay:10.37,2013-01-31 18:34:00,
2013-01-31 13:39:00,59.2,36.1,30.13,NW,320,5.0,5.0,42,0.00,CLR,OVC,0.02,WeatherDisplay:10.37,2013-01-31 18:39:00,
2013-01-31 13:44:00,59.3,36.2,30.13,WNW,303,3.4,3.4,42,0.00,CLR,OVC,0.02,WeatherDisplay:10.37,2013-01-31 18:44:00,
2013-01-31 13:49:00,59.4,35.7,30.13,NW,319,3.4,3.4,41,0.00,CLR,OVC,0.02,WeatherDisplay:10.37,2013-01-31 18:49:00,
2013-01-31 13:54:00,59.1,35.4,30.12,West,281,2.3,2.3,41,0.00,CLR,OVC,0.02,WeatherDisplay:10.37,2013-01-31 18:54:00,
2013-01-31 13:59:00,59.1,34.1,30.12,WNW,297,3.4,3.4,39,0.00,CLR,OVC,0.02,WeatherDisplay:10.37,2013-01-31 18:59:00,
2013-01-31 14:04:00,59.3,33.7,30.13,WSW,241,4.6,4.6,38,0.00,CLR,OVC,0.02,WeatherDisplay:10.37,2013-01-31 19:04:00,
2013-01-31 14:09:00,59.4,33.1,30.13,NW,317,3.4,3.4,37,0.00,CLR,OVC,0.02,WeatherDisplay:10.37,2013-01-31 19:09:00,
2013-01-31 14:14:00,59.5,33.9,30.13,WNW,284,2.3,2.3,38,0.00,CLR,OVC,0.02,WeatherDisplay:10.37,2013-01-31 19:14:00,
2013-01-31 14:19:00,59.9,33.5,30.13,NNW,330,3.4,3.4,37,0.00,CLR,OVC,0.02,WeatherDisplay:10.37,2013-01-31 19:19:00,
2013-01-31 14:24:00,59.9,33.5,30.13,West,259,3.4,3.4,37,0.00,CLR,OVC,0.02,WeatherDisplay:10.37,2013-01-31 19:24:00,
2013-01-31 14:29:00,59.9,32.9,30.13,NNW,334,4.6,4.6,36,0.00,CLR,OVC,0.02,WeatherDisplay:10.37,2013-01-31 19:29:00,
2013-01-31 14:34:00,59.8,34.8,30.13,WSW,239,4.0,4.0,39,0.00,CLR,OVC,0.02,WeatherDisplay:10.37,2013-01-31 19:34:00,
2013-01-31 14:39:00,59.8,35.4,30.13,North,353,4.0,4.0,40,0.00,CLR,OVC,0.02,WeatherDisplay:10.37,2013-01-31 19:39:00,
2013-01-31 14:44:00,59.7,34.7,30.13,NW,317,4.6,4.6,39,0.00,CLR,OVC,0.02,WeatherDisplay:10.37,2013-01-31 19:44:00,
2013-01-31 14:49:00,60.1,33.0,30.13,SW,219,2.3,2.3,36,0.00,CLR,OVC,0.02,WeatherDisplay:10.37,2013-01-31 19:49:00,
2013-01-31 14:54:00,60.1,34.4,30.13,SW,234,3.4,3.4,38,0.00,CLR,OVC,0.02,WeatherDisplay:10.37,2013-01-31 19:54:00,
2013-01-31 14:59:00,59.9,34.2,30.13,WNW,298,3.4,3.4,38,0.00,CLR,OVC,0.02,WeatherDisplay:10.37,2013-01-31 19:59:00,
2013-01-31 15:04:00,59.9,33.5,30.13,North,352,3.0,3.0,37,0.00,CLR,OVC,0.02,WeatherDisplay:10.37,2013-01-31 20:04:00,
2013-01-31 15:09:00,59.8,32.1,30.13,NNW,337,3.0,3.0,35,0.00,CLR,OVC,0.02,WeatherDisplay:10.37,2013-01-31 20:09:00,
2013-01-31 15:14:00,60.0,32.2,30.14,SW,215,4.6,4.6,35,0.00,CLR,OVC,0.02,WeatherDisplay:10.37,2013-01-31 20:14:00,
2013-01-31 15:19:00,60.2,33.1,30.13,West,272,2.3,2.3,36,0.00,CLR,OVC,0.02,WeatherDisplay:10.37,2013-01-31 20:19:00,
2013-01-31 15:24:00,60.3,32.5,30.14,WNW,299,4.6,4.6,35,0.00,CLR,OVC,0.02,WeatherDisplay:10.37,2013-01-31 20:24:00,
2013-01-31 15:29:00,60.4,31.9,30.14,North,8,3.4,3.4,34,0.00,CLR,OVC,0.02,WeatherDisplay:10.37,2013-01-31 20:29:00,
2013-01-31 15:34:00,60.4,31.9,30.14,NNW,339,5.8,5.8,34,0.00,CLR,OVC,0.02,WeatherDisplay:10.37,2013-01-31 20:34:00,
2013-01-31 15:39:00,60.4,31.9,30.14,NNW,334,3.4,3.4,34,0.00,CLR,OVC,0.02,WeatherDisplay:10.37,2013-01-31 20:39:00,
2013-01-31 15:44:00,60.3,31.8,30.14,WSW,257,3.4,3.4,34,0.00,CLR,OVC,0.02,WeatherDisplay:10.37,2013-01-31 20:44:00,
2013-01-31 15:49:00,60.3,31.0,30.13,SW,235,3.4,3.4,33,0.00,CLR,OVC,0.02,WeatherDisplay:10.37,2013-01-31 20:49:00,
2013-01-31 15:54:00,60.4,30.4,30.13,NW,324,2.3,2.3,32,0.00,CLR,OVC,0.02,WeatherDisplay:10.37,2013-01-31 20:54:00,
2013-01-31 15:59:00,60.3,30.3,30.13,WNW,299,3.4,3.4,32,0.00,CLR,OVC,0.02,WeatherDisplay:10.37,2013-01-31 20:59:00,
2013-01-31 16:04:00,60.3,30.3,30.14,WNW,295,2.3,2.3,32,0.00,CLR,OVC,0.02,WeatherDisplay:10.37,2013-01-31 21:04:00,
2013-01-31 16:09:00,60.1,30.1,30.14,WNW,282,3.4,3.4,32,0.00,CLR,OVC,0.02,WeatherDisplay:10.37,2013-01-31 21:09:00,
2013-01-31 16:14:00,60.2,29.4,30.14,NW,319,4.0,4.0,31,0.00,CLR,OVC,0.02,WeatherDisplay:10.37,2013-01-31 21:14:00,
2013-01-31 16:19:00,60.4,28.8,30.14,WNW,288,3.4,3.4,30,0.00,CLR,OVC,0.02,WeatherDisplay:10.37,2013-01-31 21:19:00,
2013-01-31 16:24:00,60.3,29.5,30.14,WSW,241,2.3,2.3,31,0.00,CLR,OVC,0.02,WeatherDisplay:10.37,2013-01-31 21:24:00,
2013-01-31 16:29:00,60.2,29.4,30.14,WNW,292,1.1,1.1,31,0.00,CLR,OVC,0.02,WeatherDisplay:10.37,2013-01-31 21:29:00,
2013-01-31 16:34:00,60.2,28.6,30.14,WNW,295,2.3,2.5,30,0.00,CLR,OVC,0.02,WeatherDisplay:10.37,2013-01-31 21:34:00,
2013-01-31 16:39:00,60.1,29.3,30.14,SSW,211,1.1,1.1,31,0.00,CLR,OVC,0.02,WeatherDisplay:10.37,2013-01-31 21:39:00,
2013-01-31 16:44:00,60.1,28.5,30.14,NW,310,3.4,3.4,30,0.00,CLR,OVC,0.02,WeatherDisplay:10.37,2013-01-31 21:44:00,
2013-01-31 16:49:00,60.1,30.1,30.14,West,266,3.4,3.4,32,0.00,CLR,OVC,0.02,WeatherDisplay:10.37,2013-01-31 21:49:00,
2013-01-31 16:54:00,60.0,30.0,30.14,West,272,1.1,1.1,32,0.00,CLR,OVC,0.02,WeatherDisplay:10.37,2013-01-31 21:54:00,
2013-01-31 16:59:00,60.0,30.0,30.14,North,351,4.0,4.0,32,0.00,CLR,OVC,0.02,WeatherDisplay:10.37,2013-01-31 21:59:00,
2013-01-31 17:04:00,59.9,29.9,30.14,WSW,241,2.3,2.3,32,0.00,CLR,OVC,0.02,WeatherDisplay:10.37,2013-01-31 22:04:00,
2013-01-31 17:09:00,59.8,29.1,30.14,WSW,249,3.4,3.4,31,0.00,CLR,OVC,0.02,WeatherDisplay:10.37,2013-01-31 22:09:00,
2013-01-31 17:14:00,59.6,28.9,30.14,NW,316,1.1,0.0,31,0.00,CLR,OVC,0.02,WeatherDisplay:10.37,2013-01-31 22:14:00,
2013-01-31 17:19:00,59.4,28.7,30.15,NW,310,2.3,2.3,31,0.00,CLR,OVC,0.02,WeatherDisplay:10.37,2013-01-31 22:19:00,
2013-01-31 17:24:00,59.3,28.6,30.15,WSW,253,2.3,2.3,31,0.00,CLR,OVC,0.02,WeatherDisplay:10.37,2013-01-31 22:24:00,
2013-01-31 17:29:00,59.1,29.2,30.15,WSW,258,2.3,2.3,32,0.00,CLR,OVC,0.02,WeatherDisplay:10.37,2013-01-31 22:29:00,
2013-01-31 17:34:00,59.0,28.4,30.15,North,352,3.4,3.4,31,0.00,CLR,OVC,0.02,WeatherDisplay:10.37,2013-01-31 22:34:00,
2013-01-31 17:39:00,58.8,28.2,30.15,NNW,329,1.1,1.1,31,0.00,CLR,OVC,0.02,WeatherDisplay:10.37,2013-01-31 22:39:00,
2013-01-31 17:44:00,58.6,28.0,30.15,SW,233,1.1,1.1,31,0.00,CLR,OVC,0.02,WeatherDisplay:10.37,2013-01-31 22:44:00,
2013-01-31 17:49:00,58.3,28.5,30.15,SW,233,1.1,0.0,32,0.00,CLR,OVC,0.02,WeatherDisplay:10.37,2013-01-31 22:49:00,
2013-01-31 17:54:00,58.0,28.3,30.15,West,262,1.1,1.1,32,0.00,CLR,OVC,0.02,WeatherDisplay:10.37,2013-01-31 22:54:00,
2013-01-31 17:59:00,57.7,28.8,30.15,West,260,0.0,0.0,33,0.00,CLR,OVC,0.02,WeatherDisplay:10.37,2013-01-31 22:59:00,
2013-01-31 18:04:00,57.3,28.4,30.15,West,260,0.0,0.0,33,0.00,CLR,OVC,0.02,WeatherDisplay:10.37,2013-01-31 23:04:00,
2013-01-31 18:09:00,56.9,29.5,30.16,West,260,0.0,0.0,35,0.00,CLR,OVC,0.02,WeatherDisplay:10.37,2013-01-31 23:09:00,
2013-01-31 18:14:00,56.4,29.1,30.16,West,260,0.0,0.0,35,0.00,CLR,OVC,0.02,WeatherDisplay:10.37,2013-01-31 23:14:00,
2013-01-31 18:19:00,56.0,29.4,30.16,West,260,0.0,0.0,36,0.00,CLR,OVC,0.02,WeatherDisplay:10.37,2013-01-31 23:19:00,
2013-01-31 18:24:00,55.5,30.3,30.16,West,260,0.0,0.0,38,0.00,CLR,OVC,0.02,WeatherDisplay:10.37,2013-01-31 23:24:00,
2013-01-31 18:29:00,55.0,29.8,30.16,West,260,0.0,0.0,38,0.00,CLR,OVC,0.02,WeatherDisplay:10.37,2013-01-31 23:29:00,
2013-01-31 18:34:00,54.6,30.1,30.16,West,260,0.0,0.0,39,0.00,CLR,OVC,0.02,WeatherDisplay:10.37,2013-01-31 23:34:00,
2013-01-31 18:39:00,54.3,30.5,30.16,West,260,0.0,0.0,40,0.00,CLR,OVC,0.02,WeatherDisplay:10.37,2013-01-31 23:39:00,
2013-01-31 18:44:00,53.9,31.3,30.17,West,260,0.0,0.0,42,0.00,CLR,OVC,0.02,WeatherDisplay:10.37,2013-01-31 23:44:00,
2013-01-31 18:49:00,53.2,32.9,30.17,West,260,0.0,0.0,46,0.00,CLR,OVC,0.02,WeatherDisplay:10.37,2013-01-31 23:49:00,
2013-01-31 18:54:00,52.5,31.2,30.17,West,260,0.0,0.0,44,0.00,CLR,OVC,0.02,WeatherDisplay:10.37,2013-01-31 23:54:00,
2013-01-31 18:59:00,52.2,31.5,30.17,West,260,0.0,0.0,45,0.00,CLR,OVC,0.02,WeatherDisplay:10.37,2013-01-31 23:59:00,
2013-01-31 19:04:00,52.0,29.6,30.17,West,260,0.0,0.0,42,0.00,CLR,OVC,0.02,WeatherDisplay:10.37,2013-02-01 00:04:00,
2013-01-31 19:09:00,52.0,30.2,30.17,West,260,0.0,0.0,43,0.00,CLR,OVC,0.02,WeatherDisplay:10.37,2013-02-01 00:09:00,
2013-01-31 19:14:00,51.7,31.6,30.18,West,260,0.0,0.0,46,0.00,CLR,OVC,0.02,WeatherDisplay:10.37,2013-02-01 00:14:00,
2013-01-31 19:19:00,51.5,30.3,30.18,West,260,0.0,0.0,44,0.00,CLR,OVC,0.02,WeatherDisplay:10.37,2013-02-01 00:19:00,
2013-01-31 19:24:00,51.4,30.2,30.18,West,260,0.0,0.0,44,0.00,CLR,OVC,0.02,WeatherDisplay:10.37,2013-02-01 00:24:00,
2013-01-31 19:29:00,51.4,33.9,30.19,West,260,0.0,0.0,51,0.00,CLR,OVC,0.02,WeatherDisplay:10.37,2013-02-01 00:29:00,
2013-01-31 19:34:00,51.0,34.0,30.19,West,260,0.0,0.0,52,0.00,CLR,OVC,0.02,WeatherDisplay:10.37,2013-02-01 00:34:00,
2013-01-31 19:39:00,50.6,32.6,30.20,West,260,0.0,0.0,50,0.00,CLR,OVC,0.02,WeatherDisplay:10.37,2013-02-01 00:39:00,
2013-01-31 19:44:00,50.1,31.7,30.20,West,260,0.0,0.0,49,0.00,CLR,OVC,0.02,WeatherDisplay:10.37,2013-02-01 00:44:00,
2013-01-31 19:49:00,49.9,32.0,30.20,West,260,0.0,0.0,50,0.00,CLR,OVC,0.02,WeatherDisplay:10.37,2013-02-01 00:49:00,
2013-01-31 19:54:00,49.3,34.3,30.20,West,260,0.0,0.0,56,0.00,CLR,OVC,0.02,WeatherDisplay:10.37,2013-02-01 00:54:00,
2013-01-31 19:59:00,48.7,34.1,30.20,West,260,0.0,0.0,57,0.00,CLR,OVC,0.02,WeatherDisplay:10.37,2013-02-01 00:59:00,
2013-01-31 20:04:00,48.5,31.2,30.21,West,260,0.0,0.0,51,0.00,CLR,OVC,0.02,WeatherDisplay:10.37,2013-02-01 01:04:00,
2013-01-31 20:09:00,48.6,31.3,30.21,West,260,0.0,0.0,51,0.00,CLR,OVC,0.02,WeatherDisplay:10.37,2013-02-01 01:09:00,
2013-01-31 20:14:00,48.8,31.5,30.21,West,260,0.0,0.0,51,0.00,CLR,OVC,0.02,WeatherDisplay:10.37,2013-02-01 01:14:00,
2013-01-31 20:19:00,48.8,34.2,30.21,West,260,0.0,0.0,57,0.00,CLR,OVC,0.02,WeatherDisplay:10.37,2013-02-01 01:19:00,
2013-01-31 20:24:00,48.1,34.9,30.22,West,260,0.0,0.0,60,0.00,CLR,OVC,0.02,WeatherDisplay:10.37,2013-02-01 01:24:00,
2013-01-31 20:29:00,47.5,34.3,30.21,West,260,0.0,0.0,60,0.00,CLR,OVC,0.02,WeatherDisplay:10.37,2013-02-01 01:29:00,
2013-01-31 20:34:00,47.1,33.5,30.22,West,260,0.0,0.0,59,0.00,CLR,OVC,0.02,WeatherDisplay:10.37,2013-02-01 01:34:00,
2013-01-31 20:39:00,46.9,34.1,30.21,West,260,0.0,0.0,61,0.00,CLR,OVC,0.02,WeatherDisplay:10.37,2013-02-01 01:39:00,
2013-01-31 20:44:00,46.6,33.4,30.21,West,260,0.0,0.0,60,0.00,CLR,OVC,0.02,WeatherDisplay:10.37,2013-02-01 01:44:00,
2013-01-31 20:49:00,46.3,34.4,30.21,West,260,0.0,0.0,63,0.00,CLR,OVC,0.02,WeatherDisplay:10.37,2013-02-01 01:49:00,
2013-01-31 20:54:00,46.3,34.4,30.21,West,260,0.0,0.0,63,0.00,CLR,OVC,0.02,WeatherDisplay:10.37,2013-02-01 01:54:00,
2013-01-31 20:59:00,46.1,34.6,30.22,West,260,0.0,0.0,64,0.00,CLR,OVC,0.02,WeatherDisplay:10.37,2013-02-01 01:59:00,
2013-01-31 21:04:00,45.9,34.8,30.22,West,260,0.0,0.0,65,0.00,CLR,OVC,0.02,WeatherDisplay:10.37,2013-02-01 02:04:00,
2013-01-31 21:09:00,46.0,33.3,30.22,West,260,0.0,0.0,61,0.00,CLR,OVC,0.02,WeatherDisplay:10.37,2013-02-01 02:09:00,
2013-01-31 21:14:00,46.1,34.2,30.23,West,260,0.0,0.0,63,0.00,CLR,OVC,0.02,WeatherDisplay:10.37,2013-02-01 02:14:00,
2013-01-31 21:19:00,46.3,31.4,30.23,West,264,0.0,0.0,56,0.00,CLR,OVC,0.02,WeatherDisplay:10.37,2013-02-01 02:19:00,
2013-01-31 21:24:00,46.8,31.5,30.23,West,272,0.0,0.0,55,0.00,CLR,OVC,0.02,WeatherDisplay:10.37,2013-02-01 02:24:00,
2013-01-31 21:29:00,47.3,31.5,30.23,NNW,332,1.1,0.0,54,0.00,CLR,OVC,0.02,WeatherDisplay:10.37,2013-02-01 02:29:00,
2013-01-31 21:34:00,48.0,30.2,30.23,North,5,3.4,3.4,50,0.00,CLR,OVC,0.02,WeatherDisplay:10.37,2013-02-01 02:34:00,
2013-01-31 21:39:00,48.5,30.2,30.23,NNW,342,1.1,1.1,49,0.00,CLR,OVC,0.02,WeatherDisplay:10.37,2013-02-01 02:39:00,
2013-01-31 21:44:00,48.5,30.7,30.23,NNW,341,1.1,1.1,50,0.00,CLR,OVC,0.02,WeatherDisplay:10.37,2013-02-01 02:44:00,
2013-01-31 21:49:00,48.4,31.6,30.24,West,279,0.0,0.0,52,0.00,CLR,OVC,0.02,WeatherDisplay:10.37,2013-02-01 02:49:00,
2013-01-31 21:54:00,48.1,31.3,30.24,WNW,282,1.1,0.0,52,0.00,CLR,OVC,0.02,WeatherDisplay:10.37,2013-02-01 02:54:00,
2013-01-31 21:59:00,47.9,31.1,30.23,WNW,282,0.0,0.0,52,0.00,CLR,OVC,0.02,WeatherDisplay:10.37,2013-02-01 02:59:00,
2013-01-31 22:04:00,47.7,31.9,30.23,WNW,282,0.0,0.0,54,0.00,CLR,OVC,0.02,WeatherDisplay:10.37,2013-02-01 03:04:00,
2013-01-31 22:09:00,47.3,31.9,30.23,WNW,282,0.0,0.0,55,0.00,CLR,OVC,0.02,WeatherDisplay:10.37,2013-02-01 03:09:00,
2013-01-31 22:14:00,47.0,31.7,30.23,WNW,282,0.0,0.0,55,0.00,CLR,OVC,0.02,WeatherDisplay:10.37,2013-02-01 03:14:00,
2013-01-31 22:19:00,46.8,32.4,30.24,WNW,282,0.0,0.0,57,0.00,CLR,OVC,0.02,WeatherDisplay:10.37,2013-02-01 03:19:00,
2013-01-31 22:24:00,46.5,31.6,30.24,WNW,282,0.0,0.0,56,0.00,CLR,OVC,0.02,WeatherDisplay:10.37,2013-02-01 03:24:00,
2013-01-31 22:29:00,46.3,32.3,30.24,WNW,282,0.0,0.0,58,0.00,CLR,OVC,0.02,WeatherDisplay:10.37,2013-02-01 03:29:00,
2013-01-31 22:34:00,46.0,32.5,30.24,WNW,282,0.0,0.0,59,0.00,CLR,OVC,0.02,WeatherDisplay:10.37,2013-02-01 03:34:00,
2013-01-31 22:39:00,45.5,32.4,30.24,WNW,282,0.0,0.0,60,0.00,CLR,OVC,0.02,WeatherDisplay:10.37,2013-02-01 03:39:00,
2013-01-31 22:44:00,45.2,32.5,30.24,WNW,282,0.0,0.0,61,0.00,CLR,OVC,0.02,WeatherDisplay:10.37,2013-02-01 03:44:00,
2013-01-31 22:49:00,45.1,31.6,30.24,WNW,282,0.0,0.0,59,0.00,CLR,OVC,0.02,WeatherDisplay:10.37,2013-02-01 03:49:00,
2013-01-31 22:54:00,45.0,32.8,30.24,WNW,282,0.0,0.0,62,0.00,CLR,OVC,0.02,WeatherDisplay:10.37,2013-02-01 03:54:00,
2013-01-31 22:59:00,44.6,32.4,30.25,WNW,282,0.0,0.0,62,0.00,CLR,OVC,0.02,WeatherDisplay:10.37,2013-02-01 03:59:00,
2013-01-31 23:04:00,44.3,33.3,30.25,WNW,282,0.0,0.0,65,0.00,CLR,OVC,0.02,WeatherDisplay:10.37,2013-02-01 04:04:00,
2013-01-31 23:09:00,43.9,33.3,30.25,WNW,282,0.0,0.0,66,0.00,CLR,OVC,0.02,WeatherDisplay:10.37,2013-02-01 04:09:00,
2013-01-31 23:14:00,43.9,33.3,30.25,WNW,282,0.0,0.0,66,0.00,CLR,OVC,0.02,WeatherDisplay:10.37,2013-02-01 04:14:00,
2013-01-31 23:20:00,43.2,33.3,30.25,WNW,282,0.0,0.0,68,0.00,CLR,OVC,0.02,WeatherDisplay:10.37,2013-02-01 04:20:00,
2013-01-31 23:25:00,42.9,33.4,30.25,WNW,282,0.0,0.0,69,0.00,CLR,OVC,0.02,WeatherDisplay:10.37,2013-02-01 04:25:00,
2013-01-31 23:30:00,42.6,33.1,30.24,WNW,282,0.0,0.0,69,0.00,CLR,OVC,0.02,WeatherDisplay:10.37,2013-02-01 04:30:00,
2013-01-31 23:35:00,42.1,33.0,30.24,WNW,282,0.0,0.0,70,0.00,CLR,OVC,0.02,WeatherDisplay:10.37,2013-02-01 04:35:00,
2013-01-31 23:40:00,41.8,33.1,30.25,WNW,282,1.1,1.1,71,0.00,CLR,OVC,0.02,WeatherDisplay:10.37,2013-02-01 04:40:00,
2013-01-31 23:45:00,41.7,33.3,30.25,WNW,282,0.0,0.0,72,0.00,CLR,OVC,0.02,WeatherDisplay:10.37,2013-02-01 04:45:00,
2013-01-31 23:50:00,41.7,33.3,30.25,WNW,282,0.0,0.0,72,0.00,CLR,OVC,0.02,WeatherDisplay:10.37,2013-02-01 04:50:00,
2013-01-31 23:55:00,41.9,32.5,30.25,WNW,282,0.0,0.0,69,0.00,CLR,OVC,0.02,WeatherDisplay:10.37,2013-02-01 04:55:00,